Stations météo

Publicité
Laval-Etronnier, France (7134): Température de l'air & dewpoint: 23.09.2020 18:00:00 - 29.09.2020 18:00:00 (CEST)Laval-Etronnier, France (7134): Température de l'air 5cm: 23.09.2020 18:00:00 - 29.09.2020 18:00:00 (CEST)Laval-Etronnier, France (7134): Température de l'air -20cm & Température de l'air -100cm: 23.09.2020 18:00:00 - 29.09.2020 18:00:00 (CEST)Laval-Etronnier, France (7134): Vitesse du vent & gusts: 23.09.2020 18:00:00 - 29.09.2020 18:00:00 (CEST)Laval-Etronnier, France (7134): Direction du vent: 23.09.2020 18:00:00 - 29.09.2020 18:00:00 (CEST)Laval-Etronnier, France (7134): reduced air pressure: 23.09.2020 18:00:00 - 29.09.2020 18:00:00 (CEST)Laval-Etronnier, France (7134): visibility: 23.09.2020 18:00:00 - 29.09.2020 18:00:00 (CEST)Laval-Etronnier, France (7134): Ensoleillement: 23.09.2020 18:00:00 - 29.09.2020 18:00:00 (CEST)Laval-Etronnier, France (7134): Quantités de précipitations: 23.09.2020 18:00:00 - 29.09.2020 18:00:00 (CEST)
Date & Time tt [°C] td [°C] tt 5cm [°C] tt -20cm [°C] tt -100cm [°C] ff [km/h] ff [knt] fx [km/h] fx [knt] dd ppp [hPa] vv [km] sd [min] rr [mm]
29.09.2020 18:00:00 18,3 15,0 18,9 17,0 16,7 18 10 27 15 SSW 1017,5 20 4 0,0
29.09.2020 17:00:00 18,4 15,1 19,2 16,8 16,8 9 5 24 13 S 1017,9 20 12 0,0
29.09.2020 16:00:00 17,8 14,9 18,6 16,4 16,7 16 8 24 13 S 1018,3 20 24 0,0
29.09.2020 15:00:00 17,4 14,9 15,9 16,1 16,7 11 6 22 12 SW 1018,7 20 10 0,0
29.09.2020 14:00:00 18,2 14,3 18,1 15,7 16,7 12 7 23 12 SSW 1019,0 20 7 0,0
29.09.2020 13:00:00 17,0 14,3 17,5 15,4 16,8 12 6 26 14 SW 1019,3 20 0 0,0
29.09.2020 12:00:00 16,6 13,9 17,3 15,0 16,8 9 5 27 14 WSW 1019,6 19 11 0,0
29.09.2020 11:00:00 15,9 13,9 15,9 14,7 16,8 13 7 23 12 WSW 1019,5 20 0 0,0
29.09.2020 10:00:00 15,0 13,7 14,5 14,6 16,8 13 7 20 11 WSW 1019,1 20 0 0,0
29.09.2020 09:00:00 14,3 13,7 13,9 14,5 16,8 8 5 22 12 WSW 1018,7 14 0 0,0
29.09.2020 08:00:00 14,1 13,8 13,7 14,5 16,8 9 5 16 9 WSW 1018,5 9 0 0,0
29.09.2020 07:00:00 14,0 13,7 13,7 14,5 16,8 8 4 16 9 SW 1018,3 10 0 0,0
29.09.2020 06:00:00 14,1 13,6 13,8 14,5 16,8 10 6 24 13 WSW 1018,1 11 0 0,0
29.09.2020 05:00:00 14,1 13,8 13,7 14,5 16,8 11 6 19 10 WSW 1018,1 11 0 0,0
29.09.2020 04:00:00 13,9 13,7 13,7 14,5 16,8 7 4 13 7 SW 1018,5 10 0 0,0
29.09.2020 03:00:00 14,0 13,8 13,8 14,6 16,8 6 3 14 7 SSW 1018,5 8 0 0,0
29.09.2020 02:00:00 14,2 13,9 13,8 14,6 16,8 6 4 18 10 SW 1018,2 10 0 0,0
29.09.2020 01:00:00 14,4 13,9 13,9 14,6 16,9 5 3 18 10 SW 1018,4 12 0 0,0
29.09.2020 00:00:00 14,2 13,6 13,6 14,7 16,9 10 5 21 11 SW 1018,6 17 0 0,0
28.09.2020 23:00:00 14,3 13,3 13,7 14,7 16,9 8 4 15 8 SW 1018,3 20 0 0,0
28.09.2020 22:00:00 14,5 13,5 13,5 14,8 16,9 11 6 28 15 W 1018,2 20 0 0,0
28.09.2020 21:00:00 15,0 12,9 12,2 15,0 16,9 10 5 16 9 WSW 1017,9 20 0 0,0
28.09.2020 20:00:00 14,6 12,1 12,2 15,2 16,9 4 2 13 7 WSW 1017,6 20 11 0,0
28.09.2020 19:00:00 16,2 12,0 16,0 15,3 16,9 10 5 21 11 W 1017,0 20 27 0,0
28.09.2020 18:00:00 17,0 11,9 17,3 15,2 16,9 13 7 29 16 WNW 1016,4 20 8 0,0
28.09.2020 17:00:00 17,2 11,2 17,0 15,2 17,0 15 8 35 19 NW 1016,2 20 4 0,0
28.09.2020 16:00:00 17,2 10,6 17,4 14,9 16,9 17 9 39 21 NW 1016,2 20 33 0,0
28.09.2020 15:00:00 18,7 9,5 19,5 14,3 17,0 16 9 35 19 WNW 1016,4 20 57 0,0
28.09.2020 14:00:00 - - - - - - - - - - - - - -
28.09.2020 13:00:00 15,8 8,5 18,6 12,7 17,0 17 9 33 18 NNW 1016,5 20 60 0,0
28.09.2020 12:00:00 14,8 8,9 16,2 12,0 17,0 15 8 31 17 NW 1016,3 20 60 0,0
28.09.2020 11:00:00 13,4 9,3 11,4 11,5 17,0 12 6 24 13 WNW 1016,1 20 45 0,0
28.09.2020 10:00:00 10,6 9,0 10,9 11,3 17,0 10 6 20 11 W 1015,9 20 58 0,0
28.09.2020 09:00:00 9,3 8,4 6,9 11,3 17,1 5 3 13 7 W 1015,6 20 39 0,0
28.09.2020 08:00:00 8,4 8,0 6,1 11,5 17,1 8 4 13 7 W 1015,2 20 0 0,0
28.09.2020 07:00:00 9,1 8,5 6,7 11,7 17,1 10 5 15 8 NW 1014,8 20 0 0,0
28.09.2020 06:00:00 8,8 7,9 7,0 11,8 17,1 6 3 14 7 W 1014,6 20 0 0,0
28.09.2020 05:00:00 9,1 7,4 7,8 12,0 17,1 8 4 22 12 WNW 1014,5 20 0 0,0
28.09.2020 04:00:00 9,5 6,9 8,5 12,2 17,1 10 5 21 11 WNW 1014,8 20 0 0,0
28.09.2020 03:00:00 10,5 6,3 9,5 12,4 17,2 12 6 26 14 NW 1014,9 20 0 0,0
28.09.2020 02:00:00 11,4 6,1 10,3 12,6 17,2 15 8 27 14 WNW 1014,8 20 0 0,0
28.09.2020 01:00:00 12,1 6,8 11,4 12,7 17,2 13 7 24 13 WNW 1014,9 20 0 0,0
28.09.2020 00:00:00 13,0 6,6 12,5 12,8 17,2 13 7 25 13 NW 1014,7 20 0 0,0
27.09.2020 23:00:00 12,9 7,3 12,2 12,8 17,2 14 8 23 12 NW 1014,7 20 0 0,0
27.09.2020 22:00:00 12,7 8,0 12,3 12,8 17,2 10 6 19 10 NW 1014,5 20 0 0,0
27.09.2020 21:00:00 12,7 7,8 12,3 12,9 17,3 11 6 23 13 NNW 1014,1 20 0 0,0
27.09.2020 20:00:00 12,7 7,6 12,2 13,0 17,2 15 8 31 17 NNW 1013,8 20 0 0,0
27.09.2020 19:00:00 12,6 7,5 12,2 13,0 17,3 17 9 39 21 NNW 1013,5 20 0 0,0
27.09.2020 18:00:00 12,4 7,3 12,4 13,1 17,3 23 12 42 23 NNW 1013,4 20 0 0,0
27.09.2020 17:00:00 12,8 7,5 13,0 13,1 17,3 22 12 48 26 NNW 1012,9 20 0 0,0
27.09.2020 16:00:00 13,1 6,9 13,7 12,8 17,3 28 15 51 28 NNW 1012,5 20 11 0,0
27.09.2020 15:00:00 12,8 6,6 12,7 12,6 17,3 29 15 60 32 NW 1012,4 20 0 0,0
27.09.2020 14:00:00 12,6 6,4 12,4 12,3 17,3 31 17 51 27 NW 1012,8 20 17 0,0
27.09.2020 13:00:00 11,8 5,9 12,0 12,1 17,4 32 18 56 30 NW 1012,6 20 0 0,0
27.09.2020 12:00:00 11,5 5,6 11,9 11,9 17,4 24 13 52 28 NW 1012,9 20 0 0,0
27.09.2020 11:00:00 11,5 6,0 11,3 11,8 17,4 26 14 51 27 NNW 1012,6 20 0 0,0
27.09.2020 10:00:00 11,1 5,4 10,9 11,8 17,4 26 14 48 26 NNW 1012,5 20 0 0,0
27.09.2020 09:00:00 11,1 5,6 10,7 11,9 17,4 24 13 44 24 NW 1011,8 20 0 0,0
27.09.2020 08:00:00 11,1 5,8 10,8 11,9 17,4 24 13 46 25 NNW 1012,2 20 0 0,0
27.09.2020 07:00:00 11,4 6,1 11,1 11,9 17,4 22 12 46 25 NW 1012,2 20 0 0,0
27.09.2020 06:00:00 11,5 6,2 11,0 11,9 17,5 19 10 37 20 NNW 1012,8 20 0 0,0
27.09.2020 05:00:00 11,4 6,7 10,9 11,9 17,5 17 9 32 17 NW 1013,1 20 0 0,0
27.09.2020 04:00:00 11,3 6,8 10,6 11,9 17,5 16 9 34 19 NW 1013,3 20 0 0,0
27.09.2020 03:00:00 10,9 6,2 10,4 11,9 17,5 16 9 31 17 NW 1013,7 20 0 0,0
27.09.2020 02:00:00 10,7 5,4 8,8 12,0 17,5 16 9 31 17 NW 1013,8 20 0 0,0
27.09.2020 01:00:00 9,4 4,6 7,3 12,2 17,6 9 5 18 10 WNW 1013,7 20 0 0,0
27.09.2020 00:00:00 9,1 3,7 7,9 12,5 17,5 10 5 29 16 NW 1013,8 20 0 0,0
26.09.2020 23:00:00 8,9 3,5 7,1 12,8 17,6 11 6 19 10 NW 1013,6 20 0 0,0
26.09.2020 22:00:00 9,2 3,4 7,6 13,2 17,6 8 5 21 11 WNW 1013,4 20 0 0,0
26.09.2020 21:00:00 10,0 3,3 8,5 13,7 17,7 13 7 29 16 NNW 1013,2 20 0 0,0
26.09.2020 20:00:00 10,8 2,9 9,7 14,2 17,6 17 9 40 22 N 1012,6 20 28 0,0
26.09.2020 19:00:00 12,6 1,6 13,4 14,7 17,7 27 14 43 23 NNW 1011,7 20 60 0,0
26.09.2020 18:00:00 13,9 0,2 - - - 28 15 44 24 NNW 1011,2 20 - 0,0
26.09.2020 17:00:00 14,8 2,7 14,2 14,9 17,7 22 12 37 20 N 1010,8 20 52 0,0
26.09.2020 16:00:00 15,0 2,8 14,3 14,6 17,7 22 12 33 18 NNW 1011,1 20 37 0,0
26.09.2020 15:00:00 14,8 4,2 - - - 22 12 37 20 NNW 1011,5 20 - 0,0
26.09.2020 14:00:00 14,4 4,1 14,4 13,6 17,8 21 11 35 19 NNW 1012,2 20 51 0,0
26.09.2020 13:00:00 12,5 6,5 11,7 13,0 17,8 18 10 35 19 NNW 1012,9 19 23 0,0
26.09.2020 12:00:00 12,6 7,5 15,3 12,4 17,8 14 8 27 15 WNW 1013,5 20 60 0,0
26.09.2020 11:00:00 11,4 8,8 10,1 12,0 17,8 16 9 27 14 W 1013,7 20 49 0,0
26.09.2020 10:00:00 9,6 8,5 8,7 11,8 17,8 15 8 25 14 W 1013,8 20 35 0,2
26.09.2020 09:00:00 8,7 8,1 7,6 11,9 17,9 14 8 26 14 W 1013,9 20 14 0,2
26.09.2020 08:00:00 8,5 8,1 7,7 11,9 17,9 16 8 26 14 W 1014,0 9 0 0,8
26.09.2020 07:00:00 8,5 7,9 7,6 12,0 17,9 11 6 28 15 W 1014,4 8 0 1,2
26.09.2020 06:00:00 8,7 7,9 7,9 12,0 17,9 11 6 35 19 WNW 1014,2 10 0 0,8
26.09.2020 05:00:00 8,9 8,3 8,3 12,0 17,9 12 7 29 15 WNW 1014,3 20 0 1,0
26.09.2020 04:00:00 9,1 7,9 8,4 12,1 17,9 16 9 36 19 WNW 1014,4 12 0 0,4
26.09.2020 03:00:00 9,4 7,3 8,0 12,2 18,0 18 10 34 18 W 1014,2 20 0 0,0
26.09.2020 02:00:00 8,9 6,7 8,1 12,4 18,0 16 9 29 16 W 1014,5 20 0 0,0
26.09.2020 01:00:00 9,3 6,0 8,6 12,6 18,0 14 8 29 16 W 1014,6 20 0 0,0
26.09.2020 00:00:00 9,7 6,0 8,4 12,9 18,0 17 9 25 13 W 1014,7 20 0 0,0
25.09.2020 23:00:00 10,3 5,5 9,2 13,2 18,1 15 8 27 15 W 1014,7 20 0 0,0
25.09.2020 22:00:00 11,1 5,6 9,9 13,6 18,1 16 9 41 22 W 1014,2 20 0 0,0
25.09.2020 21:00:00 12,0 5,6 11,2 14,0 18,1 24 13 42 23 W 1013,4 20 0 0,0
25.09.2020 20:00:00 12,8 5,9 - - - 22 12 54 29 WNW 1012,7 20 - -
25.09.2020 19:00:00 13,6 6,0 12,7 14,6 18,1 20 11 44 24 WNW 1012,0 20 27 0,0
25.09.2020 18:00:00 13,2 6,3 9,8 14,8 18,2 27 14 59 32 NW 1011,8 15 43 0,0
25.09.2020 17:00:00 15,4 4,7 14,0 14,8 18,2 26 14 67 36 NW 1010,7 20 38 0,0
25.09.2020 16:00:00 14,8 3,3 11,8 14,7 18,2 39 21 65 35 NW 1010,0 20 49 0,0
25.09.2020 15:00:00 15,0 7,3 13,7 14,1 18,2 28 15 54 29 NW 1009,2 20 50 0,2
25.09.2020 14:00:00 13,3 9,5 10,6 13,4 18,2 19 10 34 18 WNW 1008,7 20 35 0,2
25.09.2020 13:00:00 12,6 11,0 10,5 12,9 18,2 21 11 36 20 W 1008,0 20 29 0,2
25.09.2020 12:00:00 9,8 9,0 9,4 12,6 18,3 16 9 35 19 W 1007,8 18 0 1,2
25.09.2020 11:00:00 9,9 9,0 8,7 12,5 18,3 16 9 37 20 W 1006,6 20 0 0,2
25.09.2020 10:00:00 9,4 8,5 8,7 12,5 18,3 26 14 42 23 W 1005,2 19 0 1,0
25.09.2020 09:00:00 9,6 8,5 8,3 12,4 18,3 19 10 32 17 W 1004,4 19 25 0,2
25.09.2020 08:00:00 9,2 8,4 7,9 12,4 18,3 13 7 35 19 W 1003,5 17 0 0,4
25.09.2020 07:00:00 9,6 8,0 8,6 12,4 18,3 18 10 42 23 WNW 1002,4 17 0 0,2
25.09.2020 06:00:00 9,8 7,9 8,6 12,5 18,4 27 15 52 28 W 1001,0 15 0 0,2
25.09.2020 05:00:00 9,9 7,0 8,9 12,7 18,4 26 14 51 27 WSW 1000,2 20 0 0,0
25.09.2020 04:00:00 9,8 6,9 8,9 12,8 18,4 29 16 48 26 WSW 1000,0 20 0 0,0
25.09.2020 03:00:00 9,6 6,7 8,9 13,1 18,4 23 13 47 26 SW 1000,0 20 0 0,0
25.09.2020 02:00:00 9,7 7,0 8,9 13,3 18,4 24 13 46 25 SW 1000,1 20 0 0,0
25.09.2020 01:00:00 10,0 6,5 9,2 13,6 18,4 21 11 47 25 SW 1000,2 20 0 0,0
25.09.2020 00:00:00 10,6 6,5 9,3 13,9 18,5 25 13 52 28 SW 1000,8 20 0 0,0
24.09.2020 23:00:00 10,0 6,3 8,9 14,3 18,5 21 11 40 21 SSW 1001,2 20 0 0,0
24.09.2020 22:00:00 10,0 6,0 9,1 14,7 18,5 16 9 32 18 SW 1001,5 20 0 0,0
24.09.2020 21:00:00 10,6 6,3 9,6 15,2 18,5 19 11 47 25 WSW 1001,2 20 0 0,0
24.09.2020 20:00:00 11,5 7,0 10,7 15,7 18,5 24 13 50 27 WSW 1000,6 20 17 0,0
24.09.2020 19:00:00 12,7 8,0 11,6 16,1 18,6 24 13 49 27 WSW 999,5 20 0 0,0
24.09.2020 18:00:00 13,0 8,7 11,8 16,3 18,6 22 12 41 22 SW 999,6 20 6 0,2
24.09.2020 17:00:00 12,8 10,0 11,2 16,3 18,6 30 16 58 32 WSW 1000,3 13 19 1,0
24.09.2020 16:00:00 14,3 10,1 11,6 16,1 18,6 32 17 76 41 SW 1000,5 9 31 0,8
24.09.2020 15:00:00 14,5 12,7 13,5 15,7 18,6 18 10 32 17 S 1000,3 20 14 0,2
24.09.2020 14:00:00 14,4 12,1 13,8 15,4 18,6 13 7 29 16 SSW 1002,3 10 0 0,0
24.09.2020 13:00:00 12,9 11,0 12,1 15,2 18,6 12 7 37 20 SSW 1002,9 20 2 1,0
24.09.2020 12:00:00 14,2 11,9 13,7 14,7 18,7 14 8 29 16 SSW 1003,9 20 0 0,0
24.09.2020 11:00:00 13,2 12,4 11,5 14,5 18,7 9 5 35 19 SSW 1004,2 20 2 0,4
24.09.2020 10:00:00 12,1 11,5 11,2 14,4 18,7 18 10 35 19 WSW 1004,7 6 0 1,4
24.09.2020 09:00:00 12,2 10,6 10,6 14,3 18,6 19 11 33 18 S 1004,3 18 0 0,2
24.09.2020 08:00:00 10,9 9,8 9,8 14,4 18,7 13 7 20 11 S 1004,7 20 0 0,0
24.09.2020 07:00:00 10,3 9,4 9,2 14,6 18,7 14 8 25 14 S 1005,3 20 0 0,0
24.09.2020 06:00:00 10,0 8,9 8,8 14,9 18,7 13 7 21 12 S 1005,9 20 0 0,0
24.09.2020 05:00:00 9,8 8,6 8,9 15,2 18,7 11 6 19 11 S 1006,9 20 0 0,0
24.09.2020 04:00:00 9,7 8,5 8,7 15,5 18,7 11 6 15 8 S 1007,2 20 0 0,0
24.09.2020 03:00:00 10,0 8,4 8,9 15,9 18,7 9 5 16 9 SSW 1007,7 20 0 0,0
24.09.2020 02:00:00 10,7 8,6 9,6 16,2 18,7 10 5 21 12 SW 1007,7 20 0 0,0
24.09.2020 01:00:00 11,4 9,5 10,0 16,7 18,7 11 6 19 10 SW 1007,8 20 0 0,0
24.09.2020 00:00:00 11,9 9,6 10,4 17,1 18,7 10 6 19 10 W 1007,1 20 0 0,0
23.09.2020 23:00:00 13,0 10,7 11,5 17,6 18,7 11 6 27 14 W 1006,7 20 0 0,0
23.09.2020 22:00:00 13,7 12,4 12,4 18,0 18,7 12 6 26 14 WSW 1006,0 20 0 0,0
23.09.2020 21:00:00 13,9 12,6 12,9 18,3 18,7 8 4 24 13 W 1005,2 20 0 0,0
23.09.2020 20:00:00 14,3 12,3 13,3 18,6 18,7 16 9 51 28 W 1004,5 20 1 0,2
23.09.2020 19:00:00 16,6 15,8 16,0 18,8 18,8 13 7 29 16 SW 1003,4 20 3 1,2
23.09.2020 18:00:00 17,1 16,0 16,5 18,9 18,8 16 9 31 17 SW 1003,6 20 0 0,2

tt = Température de l'air
td = dewpoint
tt 5cm = Température de l'air 5cm
tt -20cm = Température de l'air -20cm
tt -100cm = Température de l'air -100cm
ff = Vitesse du vent
fx = gusts
dd = Direction du vent
ppp = reduced air pressure
vv = visibility
sd = Ensoleillement
rr = Quantités de précipitations

stations d'obs. à proximité